Regional Weather Roundup
Issued by NWS

Home | Current Version | Previous Version | Graphics & Text | Print | Product List | Glossary On
Versions: 1 2 3 4 5 6 7 8 9 10 11 12 13 14 15 16 17 18 19 20 21 22 23 24 25 26 27
000
ASUS45 KBOU 222107
RWRCO

WEATHER ROUNDUP FOR COLORADO
NATIONAL WEATHER SERVICE DENVER/BOULDER CO
300 PM MDT SAT APR 22 2017

NOTE: "FAIR" INDICATES FEW OR NO CLOUDS BELOW 12000 FEET WITH NO
SIGNIFICANT WEATHER AND/OR OBSTRUCTIONS TO VISIBILITY.

COZ001>005-013-030-031-222200-
...NORTHWEST COLORADO...

CITY           SKY/WX    TMP DP  RH WIND       PRES   REMARKS
CRAIG          FAIR      56  21  25 VRB7G16   30.19F
HAYDEN         FAIR      54  23  30 E14       30.20F
MEEKER         FAIR      55  22  27 VRB6      30.19F
MOUNT WERNER   NOT AVBL
STEAMBOAT SPGS FAIR      49  23  35 SE6       30.21F
WALDEN           N/A     46  21  36 E7        30.25F
$$

COZ006>008-011-222200-
...WEST CENTRAL VALLEYS...

CITY           SKY/WX    TMP DP  RH WIND       PRES   REMARKS
GRAND JUNCTION FAIR      63  16  16 N7        30.14F
MONTROSE       FAIR      59  15  18 VRB3      30.17F
EAGLE          MOSUNNY   54  18  24 CALM      30.23F
RIFLE          FAIR      59  17  19 W5        30.17F
DELTA          FAIR      64  15  15 SE7       30.16F
NUCLA          FAIR      63  16  16 NW7       30.17F
$$

COZ017>023-064>068-222200-
...SOUTHWEST COLORADO...

CITY           SKY/WX    TMP DP  RH WIND       PRES   REMARKS
DURANGO        FAIR      59  12  15 VRB6      30.15F
CORTEZ         FAIR      63  17  17 N5        30.15F
PAGOSA SPRINGS FAIR      57   8  14 SE5       30.19S
TELLURIDE      FAIR      51  10  19 SW7       30.24S
WOLF CREEK PAS FAIR      34  14  44 SW10G17   30.37S WCI  26
$$

COZ009-010-012-014-032>034-037-058>063-222200-
...CENTRAL COLORADO...

CITY           SKY/WX    TMP DP  RH WIND       PRES   REMARKS
ASPEN          FAIR      50  15  24 VRB6      30.20F
BUENA VISTA    FAIR      51  13  22 SE15      30.24F
COPPER MTN     CLOUDY    36   9  32 CALM      30.33S
BERTHOUD PASS  PTSUNNY   21   9  58 SE12G17   30.34F WCI   9
COTTONWOOD PAS FAIR      50  10  20 CALM      30.29S
GUNNISON       FAIR      51  10  19 CALM      30.20F
KREMMLING      FAIR      55  19  24 N6        30.24F
LEADVILLE      FAIR      39  13  34 VRB6      30.26F
MONARCH PASS   FAIR      32  18  55 E10       30.43S WCI  24
SALIDA         PTSUNNY   55  16  21 CALM      30.31F
SUNLIGHT       FAIR      32  16  51 CALM      30.34F
WILKERSON PASS FAIR      28  27  93 NE5       30.36F WCI  23
$$

COZ069>075-222200-
...SAN LUIS VALLEY/SANGRE DE CRISTO MOUNTAINS...

CITY           SKY/WX    TMP DP  RH WIND       PRES   REMARKS
ALAMOSA        FAIR      55  15  20 NE5       30.19F
LA VETA PASS   FOG       32  28  86 N13G18    30.42S VSB 1/4 WCI  22
SAGUACHE       FAIR      54  18  24 SE12      30.21F
$$

COZ035-036-038>040-222200-
...NORTHERN COLORADO FRONT RANGE...

CITY           SKY/WX    TMP DP  RH WIND       PRES   REMARKS
DENVER INTL AP PTSUNNY   54  28  36 VRB7      30.26F
DMNS CITY PARK   N/A     55  30  37 NE5G15    30.25F
AURORA         MOSUNNY   53  28  39 N7        30.26F
FRONT RANGE AP PTSUNNY   55  30  38 SE3       30.28F
ERIE MUNI ARPT FAIR      55  28  34 E8        30.26F
BOULDER MUN AP FAIR      54  32  43 E3        30.25F
CENTENNIAL     PTSUNNY   51  31  46 VRB6      30.26F
BROOMFIELD     MOSUNNY   54  28  37 SE7       30.27F
FORT COLLINS   FAIR      52  35  52 S8        30.26F
LONGMONT       FAIR      58  33  38 CALM      30.27F
$$

COZ041-046-047-076>085-087-088-222200-
...PIKES PEAK/PALMER DIVIDE AND SOUTHERN FOOTHILLS...

CITY           SKY/WX    TMP DP  RH WIND       PRES   REMARKS
COLO. SPRINGS  FAIR      46  36  68 E5        30.30F
A. F. ACADEMY  PTSUNNY   44  34  66 SE9       30.28S
SCHRIEVER AFB  FAIR      41  39  91 S8        30.30
ELLICOTT       FAIR     N/A N/A N/A W6        30.29F
FALCON         LGT RAIN  42  34  74 S5        30.31F
FORT CARSON    PTSUNNY   50  32  49 CALM      30.29F
LIMON          PTSUNNY   51  28  41 E5        30.27F
MONUMENT HILL  FAIR      43  28  56 CALM      30.30F
TRINIDAD       CLOUDY    50  30  46 MISG      30.29F
$$

COZ042>045-048>051-090-091-222200-
...NORTHEAST COLORADO...

CITY           SKY/WX    TMP DP  RH WIND       PRES   REMARKS
GREELEY ARPT   FAIR      57  35  43 SE6       30.27F
AKRON          CLOUDY    51  31  46 SE3       30.27F
BURLINGTON     NOT AVBL
WRAY           NOT AVBL
STERLING       FAIR      55  34  44 CALM      30.26F
HOLYOKE        FAIR      61  32  33 CALM      30.27F
FORT MORGAN    FAIR      57  32  39 S7        30.28F
$$

COZ086-089-092>099-222200-
...SOUTHEAST COLORADO...

CITY           SKY/WX    TMP DP  RH WIND       PRES   REMARKS
PUEBLO         PTSUNNY   52  35  52 VRB3      30.28F
LA JUNTA       CLOUDY    54  34  46 E5        30.28F
LAMAR          PTSUNNY   56  34  43 VRB5      30.27F
SPRINGFIELD      N/A     54  31  41 N12G21    30.27F
$$




USA.gov is the U.S. government's official web portal to all federal, state and local government web resources and services.